Inquirer Daily News

Weather

Get conditions and forecasts for any City, State, ZIP code or Country:  
Trenton, NJ
on Wednesday, December 19, 2012

Wednesday
Previous Day Next Day
Daily Summary
 ActualAverageRecord
Temperature
Mean Temperature °F 34°F  
Max Temperature 49°F 42°F 64°F (1895)
Min Temperature 38°F 26°F 7°F (1919)
Degree Days
Heating Degree Days 21 31  
Month to date heating degree days 399 531  
Since 1 July heating degree days 1406 1507  
Cooling Degree Days 0 0  
Month to date cooling degree days 0 0  
Year to date cooling degree days 1234 965  
Moisture
Dew Point 28°F   
Average Humidity 55    
Maximum Humidity 65    
Minimum Humidity 45    
Precipitation
Precipitation 0.00 in 0.11 in 1.07 in (1934)
Month to date precipitation 1.41 2.51  
Year to date precipitation 34.64 45.25  
Wind
Wind Speed 10 mph   
Max Wind Speed 17 mph   
Max Gust Speed 31 mph   
Visibility 10 miles   
Events     

Key: T is trace of precipitation, MM is missing value
Source: NWS Daily Summary
Time(EST)TemperatureDew PointHumidity Pressure Visibility Wind DirectionWind SpeedGust SpeedPrecipitationEvents Conditions
12:53 AM 39.9°F 28.9°F 65% 29.69 in 10.0 miles WNW 9.2 mph - N/A   Clear
1:53 AM 39.9°F 27.0°F 60% 29.71 in 10.0 miles WNW 11.5 mph - N/A   Clear
2:53 AM 39.9°F 27.0°F 60% 29.71 in 10.0 miles WNW 6.9 mph 18.4 mph N/A   Clear
3:53 AM 39.9°F 27.0°F 60% 29.72 in 10.0 miles NW 12.7 mph - N/A   Clear
4:53 AM 39.0°F 27.0°F 62% 29.72 in 10.0 miles West 10.4 mph - N/A   Clear
5:53 AM 37.9°F 27.0°F 65% 29.75 in 10.0 miles West 8.1 mph - N/A   Partly Cloudy
6:53 AM 39.0°F 27.0°F 62% 29.78 in 10.0 miles NW 5.8 mph - N/A   Clear
7:53 AM 39.0°F 28.0°F 65% 29.80 in 10.0 miles WNW 8.1 mph - N/A   Clear
8:53 AM 41.0°F 28.9°F 62% 29.82 in 10.0 miles WNW 9.2 mph - N/A   Clear
9:53 AM 44.1°F 30.0°F 58% 29.84 in 10.0 miles NNW 9.2 mph - N/A   Clear
10:53 AM 45.0°F 28.0°F 52% 29.83 in 10.0 miles NNW 17.3 mph 26.5 mph N/A   Clear
11:53 AM 46.9°F 27.0°F 46% 29.82 in 10.0 miles NNW 13.8 mph 31.1 mph N/A   Clear
12:53 PM 48.9°F 28.0°F 44% 29.83 in 10.0 miles NNW 15.0 mph 25.3 mph N/A   Clear
1:53 PM 48.9°F 28.0°F 44% 29.83 in 10.0 miles NNW 13.8 mph 19.6 mph N/A   Clear
2:53 PM 48.9°F 28.0°F 44% 29.87 in 10.0 miles NNW 15.0 mph 19.6 mph N/A   Clear
3:53 PM 48.0°F 28.9°F 48% 29.91 in 10.0 miles NW 12.7 mph 18.4 mph N/A   Scattered Clouds
4:53 PM 46.0°F 28.0°F 50% 29.95 in 10.0 miles North 8.1 mph - N/A   Scattered Clouds
5:53 PM 43.0°F 27.0°F 53% 30.01 in 10.0 miles North 6.9 mph - N/A   Clear
6:53 PM 42.1°F 26.1°F 53% 30.03 in 10.0 miles NNW 8.1 mph - N/A   Clear
7:53 PM 41.0°F 26.1°F 55% 30.06 in 10.0 miles NNW 5.8 mph - N/A   Clear
8:53 PM 39.9°F 26.1°F 58% 30.09 in 10.0 miles NW 3.5 mph - N/A   Clear
Astronomy
Sunrise:07:17 AM (EST) Moon Rise:11:24 AM (EST)
Sunset:04:35 PM (EST) Moon Set:No Moon Set/
Moon Phase
Dec. 19 Dec. 20 Dec. 28 Jan. 04 Jan. 11

Copyright © 2014 The Weather Underground, Inc.